Location: Recife
(8.0585°S, 34.8848°W)
Time: 06:52:36
(UTC-03:00)

Vanguard 3 - Pass Details

Date: 22 April 2026
Orbit: 507 x 3205 km, 33.4° (Epoch: 13 May)

Event Time Altitude Azimuth Distance (km) Brightness Sun altitude
Rises 16:30:34 0° 244° (WSW) 7,091 12.8 9.7°
Reaches altitude 10° 16:35:49 10° 248° (WSW) 5,905 12.6 8.4°
Maximum altitude 16:52:21 52° 318° (NW) 2,679 10.4 4.5°
Drops below altitude 10° 17:02:34 10° 32° (NNE) 3,761 10.4 2.0°
Sets 17:05:10 0° 37° (NE) 4,437 10.7 1.4°
